OKEAN-3

Last updated on Sun Jun 21 2026 00:02:15 GMT+0000 (Coordinated Universal Time)

1 21397U 91039A 26171.46223762 .00002280 00000+0 15706-3 0 9996 2 21397 82.5163 237.2059 0013740 345.9153 14.1688 15.05338596880494
UTC large
Height (km)
Speed (km/s)
/
Latitude / Longitude
Inclination (degrees)
Orbital Period (minutes)
Azimuth
Elevation
Range (km)
Doppler Factor

Next 0 passes for location: London (51.5072 / 0.1276)

No passes found over London.
OKEAN-3